Station Historical Data
Daily Summary for April 30, 2017 Units:  English    Metric   Both
« Previous Day
Next Day »
Daily Weekly Monthly Yearly Custom
  High: Low: Average:
Temperature: 64.6 °F 38.6 °F 47.9 °F
Dew Point: 52.0 °F 30.8 °F 39.9 °F
Humidity: 91% 62% 74%
Wind Speed: 13.0mph 0.0mph 5.8mph
Wind Gust: 25.0mph - -
Wind- - ENE
Pressure: 30.32 in 29.86 in -
Precipitation: 0.81 in    
Historical Graphs
 
 
Tabular Data for April 30, 2017
Time Temperature Dew Point Pressure Wind Wind Speed Wind Gust Humidity Rainfall Rate (Hourly)
00:00 44.3 °F 33.3 °F 30.25 in NNE 1.0 mph 3.0 mph 65% 0.00 in
00:05 44.3 °F 33.3 °F 30.26 in Calm   3.0 mph 65% 0.00 in
00:10 44.1 °F 33.1 °F 30.26 in NNE 2.0 mph 3.0 mph 65% 0.00 in
00:15 44.1 °F 33.5 °F 30.26 in NNE 1.0 mph 5.0 mph 66% 0.00 in
00:20 44.0 °F 33.4 °F 30.25 in Calm   3.0 mph 66% 0.00 in
00:25 44.0 °F 33.0 °F 30.25 in NE 2.0 mph 3.0 mph 65% 0.00 in
00:30 44.1 °F 33.1 °F 30.26 in NE 3.0 mph 4.0 mph 65% 0.00 in
00:35 44.1 °F 32.7 °F 30.26 in NE 2.0 mph 5.0 mph 64% 0.00 in
00:40 44.0 °F 33.0 °F 30.26 in NE 2.0 mph 5.0 mph 65% 0.00 in
00:45 43.9 °F 32.9 °F 30.26 in NE 1.0 mph 4.0 mph 65% 0.00 in
00:50 43.8 °F 33.2 °F 30.25 in NE 1.0 mph 4.0 mph 66% 0.00 in
00:55 43.7 °F 32.7 °F 30.25 in NE 2.0 mph 7.0 mph 65% 0.00 in
01:00 43.8 °F 32.8 °F 30.25 in NE 2.0 mph 5.0 mph 65% 0.00 in
01:05 43.7 °F 33.1 °F 30.25 in NE 2.0 mph 5.0 mph 66% 0.00 in
01:10 43.5 °F 32.9 °F 30.25 in NE 2.0 mph 5.0 mph 66% 0.00 in
01:15 43.4 °F 33.2 °F 30.25 in NE 2.0 mph 4.0 mph 67% 0.00 in
01:20 43.3 °F 33.1 °F 30.25 in NE 2.0 mph 4.0 mph 67% 0.00 in
01:25 43.1 °F 32.9 °F 30.25 in NE 1.0 mph 3.0 mph 67% 0.00 in
01:30 43.1 °F 32.9 °F 30.25 in NE 2.0 mph 4.0 mph 67% 0.00 in
01:35 43.1 °F 32.9 °F 30.25 in NE 2.0 mph 4.0 mph 67% 0.00 in
01:40 43.1 °F 32.9 °F 30.24 in NE 2.0 mph 4.0 mph 67% 0.00 in
01:45 43.2 °F 33.0 °F 30.23 in NE 3.0 mph 5.0 mph 67% 0.00 in
01:50 43.1 °F 32.9 °F 30.23 in NE 3.0 mph 6.0 mph 67% 0.00 in
01:55 43.1 °F 33.3 °F 30.23 in NE 3.0 mph 6.0 mph 68% 0.00 in
02:00 43.0 °F 33.2 °F 30.22 in ENE 4.0 mph 6.0 mph 68% 0.00 in
02:05 43.0 °F 33.2 °F 30.22 in NE 5.0 mph 7.0 mph 68% 0.00 in
02:10 43.0 °F 33.2 °F 30.21 in NE 4.0 mph 7.0 mph 68% 0.00 in
02:15 42.9 °F 33.1 °F 30.21 in NE 3.0 mph 7.0 mph 68% 0.00 in
02:20 43.0 °F 32.8 °F 30.21 in NE 3.0 mph 7.0 mph 67% 0.00 in
02:25 43.0 °F 32.8 °F 30.21 in ENE 4.0 mph 8.0 mph 67% 0.00 in
02:30 43.0 °F 32.8 °F 30.22 in ENE 3.0 mph 6.0 mph 67% 0.00 in
02:35 43.0 °F 32.8 °F 30.21 in NE 3.0 mph 7.0 mph 67% 0.00 in
02:40 42.8 °F 33.0 °F 30.21 in NE 3.0 mph 7.0 mph 68% 0.00 in
02:45 42.8 °F 32.6 °F 30.21 in NE 3.0 mph 6.0 mph 67% 0.00 in
02:50 42.8 °F 32.6 °F 30.21 in NE 3.0 mph 7.0 mph 67% 0.00 in
02:55 42.7 °F 32.9 °F 30.20 in NE 3.0 mph 7.0 mph 68% 0.00 in
03:00 42.8 °F 33.0 °F 30.20 in ENE 3.0 mph 6.0 mph 68% 0.00 in
03:05 42.8 °F 33.0 °F 30.20 in NE 3.0 mph 7.0 mph 68% 0.00 in
03:10 42.9 °F 33.1 °F 30.19 in NE 6.0 mph 9.0 mph 68% 0.00 in
03:15 42.9 °F 33.4 °F 30.19 in NE 3.0 mph 9.0 mph 69% 0.00 in
03:20 42.9 °F 33.1 °F 30.19 in NE 3.0 mph 9.0 mph 68% 0.00 in
03:25 43.0 °F 33.2 °F 30.19 in ENE 7.0 mph 10.0 mph 68% 0.00 in
03:30 43.0 °F 33.5 °F 30.20 in NE 6.0 mph 9.0 mph 69% 0.00 in
03:35 43.0 °F 33.5 °F 30.19 in NE 5.0 mph 9.0 mph 69% 0.00 in
03:40 43.0 °F 33.5 °F 30.19 in NE 5.0 mph 10.0 mph 69% 0.00 in
03:45 43.1 °F 33.6 °F 30.18 in NE 6.0 mph 12.0 mph 69% 0.00 in
03:50 43.1 °F 33.6 °F 30.18 in NE 7.0 mph 12.0 mph 69% 0.00 in
03:55 43.2 °F 33.7 °F 30.18 in NE 7.0 mph 16.0 mph 69% 0.00 in
04:00 43.3 °F 33.8 °F 30.18 in NE 7.0 mph 16.0 mph 69% 0.00 in
04:05 43.4 °F 33.9 °F 30.18 in NE 5.0 mph 10.0 mph 69% 0.00 in
04:10 43.5 °F 33.6 °F 30.17 in North 2.0 mph 13.0 mph 68% 0.00 in
04:15 43.6 °F 33.7 °F 30.17 in East 9.0 mph 15.0 mph 68% 0.00 in
04:20 43.6 °F 33.7 °F 30.18 in NE 1.0 mph 11.0 mph 68% 0.00 in
04:25 43.6 °F 33.4 °F 30.17 in NE 5.0 mph 14.0 mph 67% 0.00 in
04:30 43.7 °F 33.5 °F 30.16 in ENE 7.0 mph 14.0 mph 67% 0.00 in
04:35 43.6 °F 33.4 °F 30.16 in ENE 8.0 mph 18.0 mph 67% 0.00 in
04:40 43.5 °F 33.3 °F 30.17 in ENE 8.0 mph 18.0 mph 67% 0.00 in
04:45 43.5 °F 33.3 °F 30.17 in ENE 7.0 mph 18.0 mph 67% 0.00 in
04:50 43.5 °F 33.3 °F 30.17 in ENE 6.0 mph 15.0 mph 67% 0.00 in
04:55 43.4 °F 33.2 °F 30.17 in NE 5.0 mph 16.0 mph 67% 0.00 in
05:00 43.3 °F 33.1 °F 30.17 in ENE 8.0 mph 16.0 mph 67% 0.00 in
05:05 43.2 °F 32.6 °F 30.18 in East 11.0 mph 14.0 mph 66% 0.00 in
05:10 43.1 °F 32.1 °F 30.19 in East 9.0 mph 17.0 mph 65% 0.00 in
05:15 43.1 °F 32.1 °F 30.19 in East 8.0 mph 17.0 mph 65% 0.00 in
05:20 43.1 °F 31.7 °F 30.20 in East 8.0 mph 18.0 mph 64% 0.00 in
05:25 43.2 °F 31.8 °F 30.19 in East 10.0 mph 13.0 mph 64% 0.00 in
05:30 43.1 °F 31.7 °F 30.19 in ENE 7.0 mph 15.0 mph 64% 0.00 in
05:35 43.1 °F 31.7 °F 30.19 in ENE 7.0 mph 15.0 mph 64% 0.00 in
05:40 43.1 °F 31.7 °F 30.19 in ENE 6.0 mph 14.0 mph 64% 0.00 in
05:45 43.1 °F 31.7 °F 30.20 in East 7.0 mph 15.0 mph 64% 0.00 in
05:50 43.1 °F 31.7 °F 30.19 in ESE 8.0 mph 15.0 mph 64% 0.00 in
05:55 43.1 °F 31.7 °F 30.20 in ENE 11.0 mph 15.0 mph 64% 0.00 in
06:00 42.9 °F 31.6 °F 30.20 in ENE 7.0 mph 15.0 mph 64% 0.00 in
06:05 42.9 °F 31.6 °F 30.20 in ENE 7.0 mph 15.0 mph 64% 0.00 in
06:10 42.8 °F 31.5 °F 30.19 in ENE 6.0 mph 14.0 mph 64% 0.00 in
06:15 42.8 °F 31.1 °F 30.19 in ENE 7.0 mph 19.0 mph 63% 0.00 in
06:20 42.8 °F 31.1 °F 30.19 in NE 11.0 mph 15.0 mph 63% 0.00 in
06:25 42.7 °F 31.0 °F 30.18 in ENE 8.0 mph 15.0 mph 63% 0.00 in
06:30 42.6 °F 30.9 °F 30.18 in ENE 8.0 mph 15.0 mph 63% 0.00 in
06:35 42.5 °F 30.8 °F 30.16 in ENE 8.0 mph 18.0 mph 63% 0.00 in
06:40 42.5 °F 30.8 °F 30.17 in East 8.0 mph 15.0 mph 63% 0.00 in
06:45 42.4 °F 31.1 °F 30.17 in NE 7.0 mph 17.0 mph 64% 0.00 in
06:50 42.5 °F 31.2 °F 30.18 in ESE 4.0 mph 17.0 mph 64% 0.00 in
06:55 42.6 °F 31.3 °F 30.24 in NE 7.0 mph 17.0 mph 64% 0.00 in
07:00 42.8 °F 31.5 °F 30.26 in North 4.0 mph 9.0 mph 64% 0.00 in
07:05 42.9 °F 32.3 °F 30.32 in NNW 5.0 mph 15.0 mph 66% 0.00 in
07:10 42.2 °F 33.1 °F 30.26 in NNE 3.0 mph 11.0 mph 70% 0.01 in
07:15 41.5 °F 33.5 °F 30.26 in NNE 5.0 mph 8.0 mph 73% 0.02 in
07:20 40.9 °F 33.6 °F 30.24 in NNE 4.0 mph 9.0 mph 75% 0.02 in
07:25 40.5 °F 33.5 °F 30.22 in NE 6.0 mph 18.0 mph 76% 0.02 in
07:30 40.3 °F 33.3 °F 30.20 in NE 8.0 mph 20.0 mph 76% 0.02 in
07:35 40.2 °F 33.2 °F 30.21 in NE 10.0 mph 20.0 mph 76% 0.02 in
07:40 40.2 °F 33.6 °F 30.20 in ENE 13.0 mph 20.0 mph 77% 0.02 in
07:45 40.6 °F 34.0 °F 30.20 in NE 7.0 mph 21.0 mph 77% 0.02 in
07:50 40.9 °F 34.2 °F 30.19 in NE 7.0 mph 19.0 mph 77% 0.02 in
07:55 41.1 °F 34.1 °F 30.18 in NE 10.0 mph 22.0 mph 76% 0.02 in
08:00 40.9 °F 33.6 °F 30.18 in NE 12.0 mph 23.0 mph 75% 0.02 in
08:05 40.9 °F 33.6 °F 30.18 in ENE 10.0 mph 19.0 mph 75% 0.02 in
08:10 40.8 °F 33.2 °F 30.18 in ENE 11.0 mph 25.0 mph 74% 0.01 in
08:15 40.7 °F 33.4 °F 30.20 in NE 13.0 mph 20.0 mph 75% 0.00 in
08:20 40.6 °F 33.3 °F 30.19 in ENE 10.0 mph 20.0 mph 75% 0.01 in
08:25 40.3 °F 33.3 °F 30.17 in ENE 9.0 mph 19.0 mph 76% 0.03 in
08:30 39.9 °F 33.6 °F 30.15 in East 9.0 mph 19.0 mph 78% 0.06 in
08:35 39.5 °F 33.8 °F 30.17 in ENE 9.0 mph 18.0 mph 80% 0.10 in
08:40 39.1 °F 33.8 °F 30.18 in ENE 8.0 mph 17.0 mph 81% 0.18 in
08:45 38.8 °F 33.8 °F 30.19 in ENE 8.0 mph 17.0 mph 82% 0.20 in
08:50 38.8 °F 34.1 °F 30.20 in ENE 7.0 mph 13.0 mph 83% 0.23 in
08:55 38.8 °F 34.4 °F 30.19 in East 7.0 mph 15.0 mph 84% 0.28 in
09:00 38.7 °F 34.3 °F 30.18 in SE 2.0 mph 15.0 mph 84% 0.34 in
09:05 38.6 °F 34.2 °F 30.18 in East 9.0 mph 17.0 mph 84% 0.39 in
09:10 38.6 °F 34.5 °F 30.19 in NNE 4.0 mph 14.0 mph 85% 0.41 in
09:15 38.7 °F 34.6 °F 30.20 in East 11.0 mph 16.0 mph 85% 0.42 in
09:20 38.7 °F 34.6 °F 30.21 in ENE 6.0 mph 16.0 mph 85% 0.43 in
09:25 38.8 °F 34.7 °F 30.21 in ENE 5.0 mph 11.0 mph 85% 0.40 in
09:30 38.9 °F 34.8 °F 30.19 in ENE 5.0 mph 11.0 mph 85% 0.37 in
09:35 39.0 °F 34.6 °F 30.18 in ENE 6.0 mph 14.0 mph 84% 0.34 in
09:40 39.0 °F 34.6 °F 30.17 in ENE 6.0 mph 14.0 mph 84% 0.25 in
09:45 39.2 °F 35.1 °F 30.17 in ENE 6.0 mph 14.0 mph 85% 0.24 in
09:50 39.4 °F 35.0 °F 30.16 in ESE 5.0 mph 15.0 mph 84% 0.21 in
09:55 39.6 °F 35.2 °F 30.16 in NE 5.0 mph 14.0 mph 84% 0.16 in
10:00 39.8 °F 35.4 °F 30.16 in ESE 1.0 mph 12.0 mph 84% 0.10 in
10:05 40.0 °F 35.6 °F 30.16 in ENE 8.0 mph 8.0 mph 84% 0.05 in
10:10 40.2 °F 35.8 °F 30.16 in East 3.0 mph 12.0 mph 84% 0.03 in
10:15 40.6 °F 36.1 °F 30.15 in ENE 5.0 mph 12.0 mph 84% 0.02 in
10:20 40.7 °F 36.2 °F 30.15 in East 6.0 mph 11.0 mph 84% 0.00 in
10:25 40.9 °F 36.1 °F 30.14 in East 5.0 mph 11.0 mph 83% 0.00 in
10:30 41.2 °F 36.4 °F 30.14 in ENE 3.0 mph 10.0 mph 83% 0.00 in
10:35 41.5 °F 36.7 °F 30.14 in East 5.0 mph 13.0 mph 83% 0.00 in
10:40 41.9 °F 36.8 °F 30.14 in ENE 6.0 mph 13.0 mph 82% 0.00 in
10:45 42.5 °F 37.4 °F 30.14 in NE 3.0 mph 9.0 mph 82% 0.00 in
10:50 43.1 °F 37.7 °F 30.13 in ENE 4.0 mph 9.0 mph 81% 0.00 in
10:55 43.6 °F 38.2 °F 30.12 in ENE 5.0 mph 14.0 mph 81% 0.00 in
11:00 44.3 °F 38.2 °F 30.12 in ENE 6.0 mph 14.0 mph 79% 0.00 in
11:05 44.8 °F 38.7 °F 30.12 in NE 2.0 mph 12.0 mph 79% 0.00 in
11:10 45.2 °F 38.7 °F 30.12 in ENE 4.0 mph 11.0 mph 78% 0.00 in
11:15 45.6 °F 39.1 °F 30.12 in ENE 3.0 mph 12.0 mph 78% 0.00 in
11:20 46.0 °F 38.9 °F 30.12 in ENE 6.0 mph 14.0 mph 76% 0.00 in
11:25 46.2 °F 38.7 °F 30.12 in NE 3.0 mph 16.0 mph 75% 0.00 in
11:30 46.5 °F 39.0 °F 30.12 in East 10.0 mph 17.0 mph 75% 0.00 in
11:35 47.5 °F 39.6 °F 30.11 in NE 5.0 mph 17.0 mph 74% 0.00 in
11:40 48.9 °F 41.0 °F 30.11 in NE 8.0 mph 12.0 mph 74% 0.00 in
11:45 49.1 °F 40.1 °F 30.11 in SE 9.0 mph 13.0 mph 71% 0.00 in
11:50 49.0 °F 40.4 °F 30.10 in ENE 7.0 mph 19.0 mph 72% 0.00 in
11:55 49.0 °F 40.0 °F 30.10 in ENE 9.0 mph 22.0 mph 71% 0.00 in
12:00 50.0 °F 41.0 °F 30.10 in ENE 9.0 mph 22.0 mph 71% 0.00 in
12:05 50.3 °F 41.6 °F 30.09 in ENE 10.0 mph 22.0 mph 72% 0.00 in
12:10 50.4 °F 41.0 °F 30.08 in ENE 11.0 mph 22.0 mph 70% 0.00 in
12:15 50.2 °F 41.2 °F 30.08 in ENE 10.0 mph 19.0 mph 71% 0.00 in
12:20 50.4 °F 41.3 °F 30.08 in ENE 10.0 mph 19.0 mph 71% 0.00 in
12:25 50.9 °F 41.5 °F 30.08 in East 7.0 mph 17.0 mph 70% 0.00 in
12:30 51.6 °F 42.1 °F 30.08 in East 10.0 mph 18.0 mph 70% 0.00 in
12:35 51.9 °F 41.7 °F 30.07 in NE 9.0 mph 22.0 mph 68% 0.00 in
12:40 51.8 °F 41.9 °F 30.06 in NE 6.0 mph 19.0 mph 69% 0.00 in
12:45 51.9 °F 41.7 °F 30.06 in NE 11.0 mph 17.0 mph 68% 0.00 in
12:50 52.1 °F 42.2 °F 30.06 in NE 10.0 mph 20.0 mph 69% 0.00 in
12:55 52.1 °F 42.2 °F 30.05 in NE 11.0 mph 20.0 mph 69% 0.00 in
13:00 52.6 °F 42.7 °F 30.05 in NE 10.0 mph 18.0 mph 69% 0.00 in
13:05 53.1 °F 42.4 °F 30.05 in NE 9.0 mph 21.0 mph 67% 0.00 in
13:10 53.6 °F 43.7 °F 30.05 in NE 7.0 mph 20.0 mph 69% 0.00 in
13:15 53.8 °F 43.5 °F 30.05 in NE 9.0 mph 18.0 mph 68% 0.00 in
13:20 53.8 °F 44.2 °F 30.05 in NE 8.0 mph 18.0 mph 70% 0.00 in
13:25 54.0 °F 44.1 °F 30.04 in NE 10.0 mph 16.0 mph 69% 0.00 in
13:30 54.1 °F 44.9 °F 30.03 in NE 6.0 mph 14.0 mph 71% 0.00 in
13:35 53.9 °F 44.7 °F 30.03 in NE 11.0 mph 12.0 mph 71% 0.00 in
13:40 53.3 °F 44.1 °F 30.03 in NE 5.0 mph 14.0 mph 71% 0.00 in
13:45 53.9 °F 45.1 °F 30.03 in NE 7.0 mph 9.0 mph 72% 0.00 in
13:50 53.5 °F 44.3 °F 30.04 in NE 6.0 mph 13.0 mph 71% 0.00 in
13:55 53.5 °F 44.7 °F 30.04 in NE 6.0 mph 13.0 mph 72% 0.00 in
14:00 53.4 °F 44.2 °F 30.03 in NE 6.0 mph 15.0 mph 71% 0.00 in
14:05 53.4 °F 44.2 °F 30.02 in NE 12.0 mph 16.0 mph 71% 0.00 in
14:10 53.5 °F 44.3 °F 30.02 in NE 10.0 mph 14.0 mph 71% 0.00 in
14:15 53.3 °F 44.1 °F 30.02 in NE 7.0 mph 12.0 mph 71% 0.00 in
14:20 53.1 °F 43.9 °F 30.02 in NE 8.0 mph 15.0 mph 71% 0.00 in
14:25 53.6 °F 44.8 °F 30.01 in NE 8.0 mph 15.0 mph 72% 0.00 in
14:30 53.2 °F 44.4 °F 30.01 in NE 7.0 mph 17.0 mph 72% 0.00 in
14:35 53.5 °F 44.7 °F 30.00 in NE 7.0 mph 17.0 mph 72% 0.00 in
14:40 54.4 °F 44.8 °F 30.00 in NE 7.0 mph 16.0 mph 70% 0.00 in
14:45 54.7 °F 45.8 °F 30.00 in NE 7.0 mph 13.0 mph 72% 0.00 in
14:50 54.9 °F 45.3 °F 30.00 in NNE 8.0 mph 16.0 mph 70% 0.00 in
14:55 55.3 °F 46.1 °F 30.00 in NE 5.0 mph 14.0 mph 71% 0.00 in
15:00 55.7 °F 45.7 °F 30.00 in NNE 8.0 mph 15.0 mph 69% 0.00 in
15:05 55.2 °F 45.2 °F 30.00 in NNE 6.0 mph 18.0 mph 69% 0.00 in
15:10 55.3 °F 45.7 °F 30.00 in NE 8.0 mph 8.0 mph 70% 0.00 in
15:15 55.7 °F 46.1 °F 29.99 in ENE 12.0 mph 13.0 mph 70% 0.00 in
15:20 56.8 °F 47.1 °F 30.00 in NE 7.0 mph 13.0 mph 70% 0.00 in
15:25 56.9 °F 46.8 °F 29.99 in NE 7.0 mph 14.0 mph 69% 0.00 in
15:30 56.4 °F 46.4 °F 29.98 in NE 8.0 mph 17.0 mph 69% 0.00 in
15:35 56.0 °F 46.0 °F 29.98 in NE 8.0 mph 17.0 mph 69% 0.00 in
15:40 56.9 °F 47.2 °F 29.98 in NE 11.0 mph 13.0 mph 70% 0.00 in
15:45 56.5 °F 46.4 °F 29.96 in NE 6.0 mph 22.0 mph 69% 0.00 in
15:50 57.5 °F 47.4 °F 29.97 in NE 9.0 mph 22.0 mph 69% 0.00 in
15:55 57.3 °F 46.8 °F 29.96 in NE 11.0 mph 18.0 mph 68% 0.00 in
16:00 57.9 °F 47.4 °F 29.96 in ENE 4.0 mph 13.0 mph 68% 0.00 in
16:05 58.2 °F 47.7 °F 29.95 in East 9.0 mph 15.0 mph 68% 0.00 in
16:10 58.4 °F 47.9 °F 29.95 in NE 9.0 mph 17.0 mph 68% 0.00 in
16:15 59.3 °F 48.3 °F 29.94 in NE 3.0 mph 14.0 mph 67% 0.00 in
16:20 59.6 °F 48.2 °F 29.94 in NE 8.0 mph 14.0 mph 66% 0.00 in
16:25 59.5 °F 48.1 °F 29.94 in ENE 4.0 mph 17.0 mph 66% 0.00 in
16:30 59.7 °F 48.3 °F 29.94 in NE 8.0 mph 17.0 mph 66% 0.00 in
16:35 60.3 °F 48.9 °F 29.93 in NE 7.0 mph 14.0 mph 66% 0.00 in
16:40 61.0 °F 49.1 °F 29.93 in NE 7.0 mph 11.0 mph 65% 0.00 in
16:45 61.4 °F 49.1 °F 29.92 in NE 5.0 mph 13.0 mph 64% 0.00 in
16:50 61.8 °F 49.9 °F 29.92 in ENE 7.0 mph 13.0 mph 65% 0.00 in
16:55 62.4 °F 50.5 °F 29.92 in ENE 6.0 mph 11.0 mph 65% 0.00 in
17:00 62.0 °F 49.7 °F 29.92 in NE 6.0 mph 13.0 mph 64% 0.00 in
17:05 62.7 °F 49.9 °F 29.92 in NE 9.0 mph 13.0 mph 63% 0.00 in
17:10 63.0 °F 50.2 °F 29.92 in NE 4.0 mph 12.0 mph 63% 0.00 in
17:15 63.5 °F 51.1 °F 29.91 in ENE 9.0 mph 11.0 mph 64% 0.00 in
17:20 63.8 °F 50.5 °F 29.91 in NE 7.0 mph 14.0 mph 62% 0.00 in
17:25 64.2 °F 51.3 °F 29.91 in NE 7.0 mph 14.0 mph 63% 0.00 in
17:30 64.3 °F 51.4 °F 29.92 in ENE 2.0 mph 11.0 mph 63% 0.00 in
17:35 64.5 °F 51.2 °F 29.92 in NNE 4.0 mph 14.0 mph 62% 0.00 in
17:40 64.6 °F 51.3 °F 29.92 in ENE 10.0 mph 12.0 mph 62% 0.00 in
17:45 64.5 °F 51.2 °F 29.92 in ENE 3.0 mph 11.0 mph 62% 0.00 in
17:50 64.4 °F 51.5 °F 29.92 in NE 5.0 mph 11.0 mph 63% 0.00 in
17:55 64.4 °F 52.0 °F 29.92 in NE 4.0 mph 9.0 mph 64% 0.00 in
18:00 64.2 °F 51.3 °F 29.92 in NE 4.0 mph 9.0 mph 63% 0.00 in
18:05 64.0 °F 51.6 °F 29.92 in NE 1.0 mph 10.0 mph 64% 0.00 in
18:10 63.6 °F 51.2 °F 29.91 in NE 4.0 mph 6.0 mph 64% 0.00 in
18:15 62.5 °F 50.6 °F 29.91 in North 4.0 mph 6.0 mph 65% 0.00 in
18:20 61.3 °F 49.8 °F 29.91 in NNE 4.0 mph 7.0 mph 66% 0.00 in
18:25 60.5 °F 49.5 °F 29.90 in NNE 4.0 mph 10.0 mph 67% 0.00 in
18:30 59.9 °F 48.9 °F 29.90 in NE 6.0 mph 10.0 mph 67% 0.00 in
18:35 59.2 °F 50.2 °F 29.94 in NW 2.0 mph 9.0 mph 72% 0.02 in
18:40 57.3 °F 49.8 °F 29.96 in NNW 1.0 mph 8.0 mph 76% 0.06 in
18:45 55.9 °F 50.2 °F 29.95 in NNW 2.0 mph 3.0 mph 81% 0.24 in
18:50 55.1 °F 50.4 °F 29.93 in NNE 2.0 mph 5.0 mph 84% 0.27 in
18:55 54.8 °F 50.4 °F 29.93 in NNE 3.0 mph 6.0 mph 85% 0.27 in
19:00 54.7 °F 50.6 °F 29.94 in North 3.0 mph 6.0 mph 86% 0.27 in
19:05 54.6 °F 50.5 °F 29.93 in North 2.0 mph 5.0 mph 86% 0.27 in
19:10 54.4 °F 50.3 °F 29.92 in NE 4.0 mph 7.0 mph 86% 0.28 in
19:15 54.2 °F 50.1 °F 29.93 in NE 3.0 mph 9.0 mph 86% 0.28 in
19:20 54.1 °F 50.0 °F 29.93 in NE 4.0 mph 10.0 mph 86% 0.28 in
19:25 54.0 °F 49.9 °F 29.93 in ENE 7.0 mph 11.0 mph 86% 0.28 in
19:30 53.9 °F 49.8 °F 29.93 in NNE 4.0 mph 10.0 mph 86% 0.28 in
19:35 53.8 °F 49.7 °F 29.92 in NE 4.0 mph 9.0 mph 86% 0.26 in
19:40 53.4 °F 49.3 °F 29.92 in NNE 3.0 mph 7.0 mph 86% 0.22 in
19:45 52.6 °F 48.2 °F 29.93 in NNE 4.0 mph 12.0 mph 85% 0.04 in
19:50 51.9 °F 47.5 °F 29.93 in NNE 4.0 mph 12.0 mph 85% 0.01 in
19:55 51.4 °F 47.0 °F 29.93 in NNE 4.0 mph 10.0 mph 85% 0.01 in
20:00 50.7 °F 46.4 °F 29.93 in NNE 4.0 mph 10.0 mph 85% 0.01 in
20:05 50.3 °F 46.0 °F 29.93 in NNE 3.0 mph 5.0 mph 85% 0.01 in
20:10 49.8 °F 45.8 °F 29.93 in ENE 7.0 mph 14.0 mph 86% 0.00 in
20:15 49.4 °F 45.4 °F 29.93 in ENE 4.0 mph 12.0 mph 86% 0.00 in
20:20 49.2 °F 45.2 °F 29.93 in NE 5.0 mph 12.0 mph 86% 0.00 in
20:25 48.8 °F 44.8 °F 29.92 in NE 6.0 mph 14.0 mph 86% 0.00 in
20:30 48.3 °F 44.3 °F 29.92 in NE 7.0 mph 15.0 mph 86% 0.00 in
20:35 47.9 °F 43.9 °F 29.92 in NE 7.0 mph 14.0 mph 86% 0.00 in
20:40 47.5 °F 43.8 °F 29.92 in NE 8.0 mph 14.0 mph 87% 0.00 in
20:45 47.2 °F 43.5 °F 29.92 in NE 8.0 mph 14.0 mph 87% 0.00 in
20:50 47.0 °F 43.3 °F 29.91 in NE 5.0 mph 15.0 mph 87% 0.00 in
20:55 46.8 °F 43.1 °F 29.92 in East 6.0 mph 15.0 mph 87% 0.00 in
21:00 46.6 °F 43.2 °F 29.92 in NE 8.0 mph 15.0 mph 88% 0.00 in
21:05 46.6 °F 43.2 °F 29.91 in NE 7.0 mph 15.0 mph 88% 0.00 in
21:10 46.5 °F 43.1 °F 29.91 in NE 8.0 mph 15.0 mph 88% 0.00 in
21:15 46.5 °F 43.1 °F 29.91 in NE 8.0 mph 13.0 mph 88% 0.00 in
21:20 46.5 °F 43.4 °F 29.91 in NE 7.0 mph 13.0 mph 89% 0.00 in
21:25 46.7 °F 43.6 °F 29.90 in ENE 6.0 mph 12.0 mph 89% 0.00 in
21:30 46.7 °F 43.6 °F 29.91 in ENE 5.0 mph 12.0 mph 89% 0.00 in
21:35 46.5 °F 43.4 °F 29.90 in ENE 5.0 mph 11.0 mph 89% 0.00 in
21:40 46.5 °F 43.1 °F 29.90 in ENE 6.0 mph 15.0 mph 88% 0.00 in
21:45 46.3 °F 43.2 °F 29.90 in ENE 4.0 mph 12.0 mph 89% 0.00 in
21:50 46.2 °F 43.1 °F 29.89 in East 3.0 mph 11.0 mph 89% 0.00 in
21:55 46.2 °F 43.1 °F 29.90 in East 7.0 mph 9.0 mph 89% 0.00 in
22:00 46.2 °F 43.1 °F 29.89 in ENE 7.0 mph 10.0 mph 89% 0.00 in
22:05 46.2 °F 43.1 °F 29.89 in ENE 4.0 mph 11.0 mph 89% 0.00 in
22:10 46.1 °F 43.0 °F 29.88 in ENE 5.0 mph 11.0 mph 89% 0.00 in
22:15 46.2 °F 43.1 °F 29.88 in ENE 5.0 mph 10.0 mph 89% 0.00 in
22:20 46.3 °F 43.2 °F 29.88 in ENE 4.0 mph 13.0 mph 89% 0.00 in
22:25 46.4 °F 43.3 °F 29.88 in ENE 4.0 mph 13.0 mph 89% 0.00 in
22:30 46.5 °F 43.4 °F 29.88 in NE 5.0 mph 9.0 mph 89% 0.00 in
22:35 46.7 °F 43.6 °F 29.87 in East 5.0 mph 8.0 mph 89% 0.00 in
22:40 46.8 °F 43.7 °F 29.86 in ENE 4.0 mph 8.0 mph 89% 0.00 in
22:45 46.9 °F 43.8 °F 29.86 in ENE 3.0 mph 8.0 mph 89% 0.00 in
22:50 47.0 °F 43.9 °F 29.86 in ENE 3.0 mph 8.0 mph 89% 0.00 in
22:55 47.4 °F 44.3 °F 29.91 in NE 3.0 mph 10.0 mph 89% 0.00 in
23:00 47.4 °F 44.0 °F 29.93 in WNW 6.0 mph 18.0 mph 88% 0.00 in
23:05 46.7 °F 43.3 °F 29.93 in NW 3.0 mph 20.0 mph 88% 0.02 in
23:10 46.0 °F 42.6 °F 29.93 in NNW 7.0 mph 20.0 mph 88% 0.04 in
23:15 45.5 °F 42.2 °F 29.92 in North 2.0 mph 12.0 mph 88% 0.05 in
23:20 45.3 °F 42.2 °F 29.91 in NNE 6.0 mph 9.0 mph 89% 0.05 in
23:25 45.2 °F 42.2 °F 29.94 in WNW 7.0 mph 11.0 mph 89% 0.05 in
23:30 45.1 °F 42.1 °F 29.93 in NNW 5.0 mph 16.0 mph 89% 0.05 in
23:35 44.9 °F 41.9 °F 29.94 in North 7.0 mph 13.0 mph 89% 0.05 in
23:40 44.8 °F 42.0 °F 29.92 in North 6.0 mph 14.0 mph 90% 0.05 in
23:45 45.1 °F 42.3 °F 29.91 in NE 4.0 mph 14.0 mph 90% 0.05 in
23:50 45.4 °F 42.6 °F 29.90 in ENE 3.0 mph 7.0 mph 90% 0.05 in
23:55 46.0 °F 43.5 °F 29.90 in NE 2.0 mph 5.0 mph 91% 0.07 in
Buffalo, New York, USA
Compliments of Weather Underground - 2.5 mb